Powrót do katalogu

FENGYUN 1C DEB

AktywnySSO
NORAD 30273·DEBRIS·🇨🇳 China

Wystrzelony May 10, 1999 z Taiyuan Satellite Launch Center

Loading…

Następne Przeloty (najbliższe 24 godziny)

TLE

ŚwieżeSource: Space-Track

Epoka: Sep 14, 2026, 07:44 UTC

1 30273U 99025YJ  26257.32286809  .00000867  00000-0  57583-3 0  9992
2 30273  98.8319 268.7757 0060664 200.1560 172.4990 14.03082820  3949

Śledź FENGYUN 1C DEB w czasie rzeczywistym z AllMySat

Download on the App Store